TimeEST,TemperatureF,Dew PointF,Humidity,Sea Level PressureIn,VisibilityMPH,Wind Direction,Wind SpeedMPH,Gust SpeedMPH,PrecipitationIn,Events,Conditions,WindDirDegrees,DateUTC
12:52 AM,44.1,28.9,55,30.11,10.0,ENE,13.8,21.9,N/A,,Scattered Clouds,60,2012-11-07 05:52:00
1:52 AM,44.1,30.0,58,30.09,10.0,ENE,15.0,23.0,N/A,,Mostly Cloudy,60,2012-11-07 06:52:00
2:52 AM,45.0,32.0,60,30.07,10.0,ENE,18.4,25.3,N/A,,Overcast,60,2012-11-07 07:52:00
3:52 AM,45.0,33.1,63,30.07,10.0,ENE,17.3,26.5,N/A,,Mostly Cloudy,60,2012-11-07 08:52:00
4:44 AM,44.6,33.8,66,30.00,10.0,NE,17.3,28.8,N/A,,Overcast,50,2012-11-07 09:44:00
4:52 AM,45.0,34.0,65,30.01,10.0,NE,18.4,34.5,N/A,,Overcast,50,2012-11-07 09:52:00
5:05 AM,44.6,33.8,66,30.01,10.0,ENE,17.3,32.2,N/A,,Overcast,60,2012-11-07 10:05:00
5:13 AM,44.6,33.8,66,30.01,10.0,NE,21.9,29.9,N/A,,Overcast,50,2012-11-07 10:13:00
5:52 AM,46.0,34.0,63,30.00,10.0,ENE,23.0,33.4,N/A,,Mostly Cloudy,60,2012-11-07 10:52:00
6:52 AM,46.0,36.0,68,29.97,10.0,ENE,25.3,38.0,N/A,,Overcast,60,2012-11-07 11:52:00
7:52 AM,46.9,37.0,68,29.92,10.0,NE,19.6,39.1,N/A,,Overcast,50,2012-11-07 12:52:00
8:52 AM,46.0,37.9,73,29.90,10.0,NE,26.5,40.3,N/A,,Overcast,50,2012-11-07 13:52:00
9:52 AM,46.0,37.0,71,29.91,10.0,NE,20.7,38.0,N/A,,Overcast,50,2012-11-07 14:52:00
10:31 AM,46.4,35.6,66,29.87,10.0,NE,27.6,40.3,N/A,,Overcast,50,2012-11-07 15:31:00
10:52 AM,46.0,36.0,68,29.86,10.0,NE,27.6,43.7,N/A,,Overcast,40,2012-11-07 15:52:00
11:52 AM,46.0,34.0,63,29.83,10.0,NE,28.8,40.3,0.00,,Overcast,40,2012-11-07 16:52:00
12:52 PM,46.0,35.1,66,29.79,8.0,NE,21.9,42.6,0.01,Rain,Light Rain,40,2012-11-07 17:52:00
1:50 PM,44.6,33.8,66,29.78,5.0,ENE,35.7,50.6,0.00,Rain,Light Rain,60,2012-11-07 18:50:00
1:52 PM,45.0,34.0,65,29.79,4.0,NE,29.9,50.6,0.01,Rain,Rain,50,2012-11-07 18:52:00
2:52 PM,43.0,34.0,71,29.77,5.0,NE,24.2,46.0,0.03,Rain,Light Rain,40,2012-11-07 19:52:00
3:52 PM,43.0,36.0,76,29.75,5.0,NE,25.3,44.9,0.05,Rain,Light Rain,40,2012-11-07 20:52:00
4:52 PM,42.1,36.0,79,29.75,6.0,NE,24.2,43.7,0.05,Rain,Light Rain,50,2012-11-07 21:52:00
5:34 PM,42.8,37.4,81,29.72,4.0,NE,24.2,43.7,0.07,Rain,Rain,40,2012-11-07 22:34:00
5:52 PM,42.1,37.9,85,29.71,4.0,NE,23.0,47.2,0.10,Rain,Light Rain,40,2012-11-07 22:52:00
6:25 PM,42.8,37.4,81,29.70,5.0,NE,24.2,44.9,0.04,Rain,Rain,40,2012-11-07 23:25:00
6:52 PM,41.0,37.0,86,29.70,6.0,NE,25.3,41.4,0.06,Rain,Light Rain,40,2012-11-07 23:52:00
7:18 PM,41.0,37.4,87,29.68,4.0,NE,23.0,43.7,0.04,Rain,Light Rain,40,2012-11-08 00:18:00
7:27 PM,41.0,37.4,87,29.68,7.0,NNE,23.0,42.6,0.05,Rain,Light Rain,30,2012-11-08 00:27:00
7:47 PM,41.0,37.4,87,29.67,6.0,NE,21.9,43.7,0.06,Rain,Light Rain,40,2012-11-08 00:47:00
7:52 PM,42.1,37.9,85,29.68,8.0,NNE,21.9,38.0,0.06,Rain,Light Rain,30,2012-11-08 00:52:00
8:52 PM,43.0,37.9,82,29.65,10.0,NNE,23.0,43.7,0.00,,Overcast,30,2012-11-08 01:52:00
9:52 PM,43.0,39.9,89,29.61,4.0,NE,28.8,51.8,0.01,Rain,Light Rain,40,2012-11-08 02:52:00
10:42 PM,44.6,39.2,81,29.59,5.0,NNE,21.9,39.1,0.00,Rain,Light Rain,30,2012-11-08 03:42:00
10:52 PM,43.0,39.9,89,29.59,4.0,NNE,21.9,42.6,0.02,Rain,Light Rain,30,2012-11-08 03:52:00
11:26 PM,44.6,39.2,81,29.57,5.0,NNE,23.0,40.3,0.01,Rain,Rain,30,2012-11-08 04:26:00
11:37 PM,44.6,41.0,87,29.57,2.5,NNE,17.3,43.7,0.05,Rain,Rain,30,2012-11-08 04:37:00
11:48 PM,44.6,41.0,87,29.57,2.5,NE,20.7,43.7,0.07,Rain,Light Rain,40,2012-11-08 04:48:00
11:52 PM,44.1,41.0,89,29.57,2.5,NNE,20.7,43.7,0.08,Rain,Light Rain,30,2012-11-08 04:52:00